QPF
0.00 0.00 0.00 0.00 0.00 0.00 0.00 0.00 0.00 0.00 0.00 0.00 0.00 0.00 0.00 0.00 0.00 0.00 0.00 0.00 0.00 0.00 0.00 0.00 0.00 0.00 0.00 0.00 0.00 0.00 0.00 0.00 0.00 0.00 0.00 0.00 0.00 0.00 0.00 0.00 0.00 0.00 0.00
0.00 0.00 0.00 0.00 0.00 0.00 0.00 0.00 0.00 0.00 0.00 0.00 0.00 0.00 0.00 0.00 0.00 0.00 0.00 0.00 0.00 0.00 0.00 0.00 0.00 0.00 0.00 0.00 0.00 0.00 0.00 0.00 0.00 0.00 0.00 0.00 0.00 0.00 0.01 0.01 0.00 0.00 0.00
0.00 0.00 0.00 0.00 0.00 0.00 0.00 0.00 0.00 0.00 0.00 0.00 0.00 0.00 0.00 0.00 0.00 0.00 0.00 0.00 0.00 0.00 0.00 0.00 0.00 0.00 0.00 0.00 0.00 0.00 0.00 0.00 0.00 0.00 0.02 0.04 0.04 0.03 0.02 0.01 0.01 0.01 0.00
0.00 0.00 0.00 0.00 0.00 0.00 0.00 0.00 0.00 0.00 0.00 0.00 0.00 0.00 0.00 0.00 0.00 0.00 0.00 0.00 0.00 0.00 0.00 0.00 0.00 0.00 0.00 0.00 0.00 0.00 0.00 0.00 0.00 0.01 0.02 0.06 0.09 0.09 0.06 0.03 0.02 0.01 0.00
0.00 0.00 0.00 0.00 0.00 0.00 0.00 0.00 0.00 0.00 0.00 0.00 0.00 0.00 0.00 0.00 0.00 0.00 0.00 0.00 0.00 0.00 0.00 0.00 0.00 0.00 0.00 0.00 0.00 0.00 0.00 0.00 0.00 0.02 0.04 0.07 0.13 0.10 0.08 0.06 0.04 0.02 0.01
0.00 0.00 0.00 0.00 0.00 0.00 0.00 0.00 0.00 0.00 0.00 0.00 0.00 0.00 0.00 0.00 0.00 0.00 0.00 0.00 0.00 0.00 0.00 0.00 0.00 0.00 0.00 0.00 0.00 0.00 0.00 0.00 0.01 0.05 0.07 0.09 0.12 0.12 0.10 0.08 0.07 0.04 0.03
0.00 0.00 0.00 0.00 0.00 0.00 0.00 0.00 0.00 0.00 0.00 0.00 0.00 0.00 0.00 0.00 0.00 0.00 0.00 0.00 0.00 0.00 0.00 0.00 0.00 0.00 0.00 0.00 0.00 0.00 0.00 0.00 0.01 0.06 0.08 0.07 0.06 0.08 0.07 0.06 0.05 0.04 0.04
0.00 0.00 0.00 0.00 0.00 0.00 0.00 0.00 0.00 0.00 0.00 0.00 0.00 0.00 0.00 0.00 0.00 0.00 0.00 0.00 0.00 0.00 0.00 0.00 0.00 0.00 0.00 0.00 0.00 0.00 0.00 0.00 0.00 0.03 0.06 0.04 0.03 0.02 0.02 0.02 0.02 0.02 0.02
0.00 0.00 0.00 0.00 0.00 0.00 0.00 0.00 0.00 0.00 0.00 0.00 0.00 0.00 0.00 0.00 0.00 0.00 0.00 0.00 0.00 0.00 0.00 0.00 0.00 0.00 0.00 0.00 0.00 0.00 0.00 0.00 0.00 0.01 0.01 0.01 0.01 0.01 0.00 0.00 0.00 0.00 0.00
0.00 0.00 0.00 0.00 0.00 0.00 0.00 0.00 0.00 0.00 0.00 0.00 0.00 0.00 0.00 0.00 0.00 0.00 0.00 0.00 0.00 0.00 0.00 0.00 0.00 0.00 0.00 0.00 0.00 0.00 0.00 0.00 0.00 0.00 0.00 0.00 0.00 0.00 0.00 0.00 0.00 0.00 0.00
0.00 0.00 0.00 0.00 0.00 0.00 0.00 0.00 0.00 0.00 0.00 0.00 0.00 0.00 0.00 0.00 0.00 0.00 0.00 0.00 0.00 0.00 0.00 0.00 0.00 0.00 0.00 0.00 0.00 0.00 0.00 0.00 0.00 0.00 0.00 0.00 0.00 0.00 0.00 0.00 0.00 0.00 0.00
0.00 0.00 0.00 0.00 0.00 0.00 0.00 0.00 0.00 0.00 0.00 0.00 0.00 0.00 0.00 0.00 0.00 0.00 0.00 0.01 0.00 0.00 0.00 0.00 0.00 0.00 0.00 0.00 0.00 0.00 0.00 0.00 0.00 0.00 0.00 0.00 0.00 0.00 0.00 0.00 0.00 0.00 0.00
0.01 0.00 0.00 0.00 0.00 0.00 0.00 0.00 0.00 0.00 0.00 0.00 0.00 0.00 0.00 0.01 0.01 0.02 0.01 0.01 0.01 0.00 0.00 0.00 0.00 0.00 0.00 0.00 0.00 0.00 0.00 0.00 0.00 0.00 0.00 0.00 0.00 0.00 0.00 0.00 0.00 0.00 0.00
0.02 0.01 0.00 0.00 0.00 0.00 0.00 0.00 0.00 0.00 0.00 0.00 0.00 0.00 0.00 0.01 0.02 0.03 0.02 0.01 0.01 0.01 0.00 0.00 0.00 0.00 0.00 0.00 0.00 0.00 0.00 0.00 0.00 0.00 0.00 0.00 0.00 0.01 0.01 0.00 0.00 0.00 0.00
0.06 0.02 0.01 0.00 0.00 0.00 0.00 0.00 0.00 0.00 0.00 0.00 0.00 0.00 0.00 0.01 0.01 0.01 0.01 0.01 0.01 0.01 0.01 0.01 0.00 0.00 0.00 0.00 0.00 0.00 0.00 0.00 0.00 0.00 0.00 0.00 0.00 0.01 0.01 0.01 0.01 0.02 0.02
0.09 0.03 0.01 0.01 0.00 0.00 0.00 0.00 0.00 0.00 0.00 0.00 0.00 0.00 0.00 0.00 0.00 0.00 0.00 0.00 0.00 0.00 0.00 0.00 0.00 0.00 0.00 0.00 0.00 0.00 0.00 0.00 0.00 0.00 0.00 0.00 0.01 0.01 0.02 0.03 0.03 0.03 0.04
0.12 0.04 0.02 0.03 0.02 0.01 0.00 0.00 0.00 0.00 0.00 0.00 0.00 0.00 0.00 0.00 0.00 0.00 0.00 0.00 0.00 0.00 0.00 0.00 0.00 0.00 0.00 0.00 0.00 0.00 0.00 0.00 0.00 0.00 0.00 0.00 0.01 0.02 0.02 0.03 0.03 0.03 0.03
0.11 0.06 0.06 0.05 0.04 0.02 0.00 0.00 0.00 0.00 0.00 0.00 0.00 0.00 0.00 0.00 0.00 0.00 0.00 0.00 0.00 0.00 0.00 0.00 0.00 0.00 0.00 0.00 0.00 0.00 0.00 0.00 0.00 0.00 0.00 0.00 0.01 0.01 0.01 0.02 0.02 0.02 0.02
0.18 0.13 0.08 0.07 0.04 0.02 0.01 0.00 0.00 0.00 0.00 0.00 0.00 0.00 0.00 0.00 0.00 0.00 0.01 0.01 0.01 0.00 0.00 0.00 0.00 0.00 0.00 0.00 0.00 0.00 0.00 0.00 0.00 0.00 0.00 0.00 0.00 0.00 0.00 0.01 0.02 0.03 0.03
0.26 0.19 0.12 0.08 0.03 0.02 0.01 0.00 0.00 0.00 0.00 0.00 0.01 0.01 0.01 0.02 0.02 0.01 0.01 0.01 0.01 0.01 0.01 0.00 0.00 0.00 0.00 0.00 0.00 0.00 0.00 0.00 0.00 0.00 0.00 0.00 0.00 0.00 0.00 0.00 0.01 0.01 0.02
0.25 0.19 0.10 0.06 0.04 0.03 0.02 0.01 0.01 0.01 0.01 0.02 0.04 0.06 0.07 0.07 0.05 0.04 0.03 0.02 0.02 0.01 0.01 0.00 0.00 0.00 0.00 0.00 0.00 0.00 0.00 0.00 0.00 0.00 0.00 0.00 0.00 0.00 0.00 0.00 0.00 0.00 0.00
0.14 0.12 0.09 0.10 0.10 0.09 0.08 0.06 0.05 0.05 0.06 0.09 0.13 0.14 0.14 0.11 0.08 0.06 0.04 0.03 0.02 0.01 0.01 0.00 0.00 0.00 0.00 0.00 0.00 0.00 0.00 0.00 0.00 0.00 0.00 0.00 0.00 0.00 0.00 0.00 0.00 0.00 0.00
0.10 0.14 0.13 0.16 0.20 0.23 0.24 0.20 0.17 0.17 0.19 0.22 0.23 0.22 0.18 0.13 0.09 0.05 0.04 0.03 0.02 0.01 0.00 0.00 0.00 0.00 0.00 0.00 0.00 0.00 0.00 0.00 0.00 0.00 0.00 0.00 0.00 0.00 0.00 0.00 0.00 0.00 0.00
0.05 0.10 0.15 0.21 0.33 0.48 0.60 0.61 0.51 0.41 0.37 0.35 0.33 0.28 0.21 0.14 0.09 0.06 0.05 0.03 0.02 0.00 0.00 0.00 0.00 0.00 0.00 0.00 0.00 0.00 0.00 0.00 0.00 0.00 0.00 0.00 0.00 0.00 0.00 0.00 0.00 0.00 0.00
0.09 0.16 0.23 0.32 0.46 0.62 0.69 0.73 0.65 0.51 0.45 0.42 0.39 0.29 0.18 0.11 0.08 0.06 0.04 0.04 0.02 0.01 0.00 0.00 0.00 0.00 0.00 0.00 0.00 0.00 0.00 0.00 0.00 0.00 0.00 0.00 0.00 0.00 0.00 0.00 0.00 0.00 0.00
0.18 0.25 0.32 0.37 0.46 0.55 0.55 0.50 0.43 0.41 0.38 0.34 0.27 0.19 0.12 0.08 0.05 0.04 0.03 0.03 0.01 0.00 0.00 0.00 0.00 0.00 0.00 0.00 0.00 0.00 0.00 0.00 0.00 0.00 0.00 0.00 0.00 0.00 0.00 0.00 0.00 0.00 0.00
MSLP
1014.10 1013.51 1013.11 1012.99 1013.11 1013.44 1013.85 1014.27 1014.59 1014.80 1014.89 1014.92 1014.93 1015.00 1015.15 1015.38 1015.67 1015.96 1016.22 1016.40 1016.52 1016.57 1016.59 1016.62 1016.68 1016.78 1016.92 1017.06 1017.19 1017.28 1017.31 1017.30 1017.27 1017.22 1017.20 1017.20 1017.24 1017.30 1017.36 1017.43 1017.49 1017.53 1017.58
1013.80 1013.35 1013.08 1013.06 1013.25 1013.61 1014.03 1014.43 1014.73 1014.92 1015.01 1015.06 1015.12 1015.24 1015.44 1015.72 1016.03 1016.32 1016.57 1016.73 1016.81 1016.84 1016.84 1016.86 1016.91 1017.00 1017.11 1017.23 1017.32 1017.37 1017.38 1017.35 1017.30 1017.27 1017.27 1017.30 1017.36 1017.44 1017.53 1017.60 1017.66 1017.70 1017.74
1013.43 1013.13 1013.00 1013.09 1013.36 1013.76 1014.20 1014.59 1014.89 1015.07 1015.17 1015.25 1015.34 1015.50 1015.72 1016.01 1016.31 1016.59 1016.80 1016.92 1016.97 1016.98 1016.98 1016.99 1017.04 1017.13 1017.23 1017.32 1017.38 1017.40 1017.38 1017.33 1017.29 1017.27 1017.30 1017.37 1017.47 1017.58 1017.69 1017.77 1017.84 1017.88 1017.93
1013.07 1012.92 1012.93 1013.12 1013.48 1013.92 1014.37 1014.77 1015.06 1015.25 1015.36 1015.45 1015.57 1015.74 1015.97 1016.24 1016.51 1016.74 1016.90 1016.98 1017.01 1017.01 1017.02 1017.05 1017.12 1017.21 1017.31 1017.38 1017.42 1017.40 1017.35 1017.29 1017.26 1017.26 1017.32 1017.43 1017.56 1017.71 1017.83 1017.93 1018.00 1018.06 1018.13
1012.82 1012.80 1012.92 1013.21 1013.63 1014.11 1014.57 1014.95 1015.24 1015.42 1015.55 1015.65 1015.78 1015.96 1016.18 1016.41 1016.64 1016.81 1016.91 1016.96 1016.97 1016.97 1017.00 1017.07 1017.17 1017.29 1017.39 1017.46 1017.47 1017.43 1017.36 1017.28 1017.24 1017.26 1017.35 1017.48 1017.64 1017.81 1017.95 1018.05 1018.13 1018.20 1018.28
1012.74 1012.83 1013.04 1013.40 1013.85 1014.33 1014.77 1015.14 1015.40 1015.58 1015.70 1015.82 1015.96 1016.14 1016.34 1016.55 1016.72 1016.84 1016.90 1016.91 1016.91 1016.93 1016.99 1017.10 1017.25 1017.40 1017.52 1017.58 1017.57 1017.51 1017.41 1017.32 1017.28 1017.30 1017.39 1017.54 1017.71 1017.88 1018.02 1018.12 1018.19 1018.26 1018.35
1012.84 1013.00 1013.28 1013.67 1014.13 1014.59 1015.00 1015.32 1015.54 1015.70 1015.82 1015.95 1016.10 1016.28 1016.48 1016.66 1016.80 1016.88 1016.90 1016.90 1016.90 1016.94 1017.03 1017.19 1017.37 1017.55 1017.69 1017.75 1017.72 1017.64 1017.52 1017.41 1017.35 1017.37 1017.46 1017.60 1017.76 1017.92 1018.04 1018.12 1018.18 1018.24 1018.32
1013.05 1013.27 1013.59 1014.00 1014.44 1014.86 1015.21 1015.47 1015.65 1015.77 1015.89 1016.02 1016.20 1016.40 1016.61 1016.79 1016.91 1016.96 1016.97 1016.95 1016.95 1017.00 1017.13 1017.31 1017.53 1017.73 1017.87 1017.93 1017.90 1017.79 1017.65 1017.53 1017.45 1017.46 1017.53 1017.66 1017.80 1017.93 1018.02 1018.07 1018.11 1018.14 1018.22
1013.27 1013.55 1013.91 1014.33 1014.75 1015.12 1015.40 1015.59 1015.71 1015.80 1015.91 1016.06 1016.26 1016.49 1016.72 1016.92 1017.04 1017.09 1017.08 1017.06 1017.06 1017.12 1017.25 1017.45 1017.67 1017.88 1018.03 1018.08 1018.04 1017.92 1017.77 1017.64 1017.55 1017.54 1017.60 1017.71 1017.83 1017.93 1017.98 1018.00 1018.00 1018.02 1018.07
1013.39 1013.73 1014.15 1014.59 1015.00 1015.32 1015.53 1015.65 1015.72 1015.77 1015.87 1016.04 1016.27 1016.54 1016.80 1017.02 1017.16 1017.22 1017.21 1017.18 1017.17 1017.22 1017.35 1017.54 1017.76 1017.96 1018.09 1018.14 1018.10 1017.98 1017.84 1017.70 1017.62 1017.61 1017.66 1017.76 1017.85 1017.92 1017.95 1017.94 1017.91 1017.90 1017.93
1013.32 1013.75 1014.24 1014.71 1015.11 1015.40 1015.57 1015.63 1015.65 1015.68 1015.77 1015.95 1016.21 1016.52 1016.82 1017.07 1017.23 1017.30 1017.30 1017.26 1017.24 1017.27 1017.38 1017.54 1017.74 1017.92 1018.04 1018.09 1018.05 1017.95 1017.83 1017.71 1017.65 1017.65 1017.70 1017.78 1017.86 1017.91 1017.92 1017.89 1017.84 1017.81 1017.83
1013.03 1013.56 1014.12 1014.64 1015.06 1015.34 1015.48 1015.51 1015.50 1015.51 1015.59 1015.78 1016.06 1016.39 1016.73 1017.01 1017.20 1017.28 1017.29 1017.25 1017.22 1017.23 1017.31 1017.44 1017.60 1017.76 1017.88 1017.93 1017.91 1017.84 1017.75 1017.67 1017.63 1017.65 1017.71 1017.78 1017.85 1017.89 1017.89 1017.85 1017.80 1017.76 1017.76
1012.52 1013.14 1013.79 1014.36 1014.81 1015.10 1015.23 1015.25 1015.23 1015.23 1015.32 1015.51 1015.80 1016.15 1016.50 1016.80 1017.02 1017.13 1017.15 1017.12 1017.09 1017.09 1017.15 1017.25 1017.40 1017.54 1017.65 1017.71 1017.71 1017.68 1017.63 1017.59 1017.58 1017.61 1017.68 1017.76 1017.82 1017.85 1017.84 1017.80 1017.75 1017.71 1017.72
1011.87 1012.56 1013.26 1013.88 1014.36 1014.67 1014.82 1014.85 1014.84 1014.85 1014.94 1015.14 1015.43 1015.78 1016.15 1016.46 1016.70 1016.84 1016.90 1016.90 1016.89 1016.90 1016.95 1017.05 1017.17 1017.30 1017.41 1017.48 1017.52 1017.52 1017.51 1017.51 1017.53 1017.57 1017.64 1017.70 1017.75 1017.77 1017.75 1017.71 1017.67 1017.64 1017.65
1011.12 1011.84 1012.56 1013.21 1013.72 1014.06 1014.24 1014.32 1014.34 1014.38 1014.49 1014.69 1014.98 1015.33 1015.70 1016.02 1016.29 1016.47 1016.58 1016.63 1016.67 1016.72 1016.79 1016.89 1017.01 1017.14 1017.26 1017.34 1017.40 1017.43 1017.45 1017.48 1017.51 1017.55 1017.59 1017.63 1017.65 1017.64 1017.61 1017.57 1017.53 1017.52 1017.54
1010.35 1011.04 1011.75 1012.39 1012.92 1013.29 1013.54 1013.68 1013.77 1013.86 1014.01 1014.23 1014.52 1014.86 1015.22 1015.56 1015.86 1016.09 1016.27 1016.40 1016.51 1016.62 1016.73 1016.86 1017.00 1017.13 1017.25 1017.35 1017.42 1017.47 1017.51 1017.53 1017.56 1017.58 1017.59 1017.58 1017.55 1017.50 1017.44 1017.39 1017.35 1017.34 1017.39
1009.58 1010.21 1010.86 1011.47 1012.00 1012.43 1012.75 1012.99 1013.18 1013.36 1013.57 1013.82 1014.12 1014.46 1014.82 1015.17 1015.51 1015.80 1016.06 1016.28 1016.48 1016.67 1016.84 1017.01 1017.16 1017.31 1017.42 1017.52 1017.60 1017.65 1017.69 1017.72 1017.72 1017.70 1017.66 1017.59 1017.50 1017.40 1017.30 1017.22 1017.17 1017.17 1017.21
1008.82 1009.36 1009.93 1010.51 1011.05 1011.54 1011.96 1012.32 1012.65 1012.95 1013.24 1013.55 1013.87 1014.22 1014.58 1014.94 1015.31 1015.67 1016.01 1016.33 1016.63 1016.90 1017.14 1017.34 1017.52 1017.66 1017.77 1017.86 1017.94 1017.99 1018.02 1018.03 1018.01 1017.96 1017.86 1017.72 1017.57 1017.40 1017.25 1017.14 1017.07 1017.06 1017.10
1008.08 1008.52 1009.02 1009.57 1010.13 1010.70 1011.25 1011.76 1012.24 1012.68 1013.09 1013.46 1013.83 1014.18 1014.55 1014.93 1015.32 1015.73 1016.15 1016.56 1016.95 1017.29 1017.59 1017.83 1018.01 1018.15 1018.25 1018.33 1018.40 1018.44 1018.47 1018.48 1018.44 1018.35 1018.20 1018.01 1017.80 1017.57 1017.37 1017.21 1017.12 1017.09 1017.11
1007.39 1007.75 1008.20 1008.73 1009.34 1010.00 1010.69 1011.37 1012.02 1012.62 1013.15 1013.60 1014.00 1014.38 1014.74 1015.13 1015.55 1016.00 1016.47 1016.95 1017.40 1017.81 1018.14 1018.40 1018.59 1018.72 1018.80 1018.87 1018.92 1018.97 1019.01 1019.01 1018.97 1018.87 1018.70 1018.47 1018.21 1017.93 1017.68 1017.48 1017.35 1017.29 1017.29
1006.78 1007.11 1007.53 1008.08 1008.75 1009.52 1010.35 1011.20 1012.02 1012.77 1013.41 1013.94 1014.39 1014.77 1015.14 1015.52 1015.94 1016.41 1016.92 1017.44 1017.93 1018.37 1018.73 1018.99 1019.17 1019.28 1019.35 1019.40 1019.45 1019.51 1019.56 1019.59 1019.56 1019.47 1019.30 1019.06 1018.76 1018.46 1018.17 1017.93 1017.76 1017.67 1017.62
1006.36 1006.69 1007.13 1007.71 1008.45 1009.31 1010.27 1011.27 1012.23 1013.10 1013.84 1014.44 1014.91 1015.30 1015.65 1016.01 1016.42 1016.89 1017.41 1017.95 1018.46 1018.91 1019.27 1019.53 1019.68 1019.77 1019.83 1019.87 1019.93 1020.00 1020.08 1020.15 1020.16 1020.09 1019.93 1019.69 1019.40 1019.07 1018.75 1018.48 1018.27 1018.13 1018.05
1006.22 1006.60 1007.07 1007.69 1008.48 1009.42 1010.47 1011.56 1012.61 1013.56 1014.36 1014.99 1015.47 1015.85 1016.18 1016.52 1016.91 1017.36 1017.88 1018.41 1018.92 1019.36 1019.71 1019.94 1020.08 1020.15 1020.19 1020.23 1020.30 1020.40 1020.51 1020.61 1020.66 1020.63 1020.50 1020.28 1019.98 1019.65 1019.31 1019.01 1018.77 1018.58 1018.45
1006.47 1006.90 1007.41 1008.06 1008.87 1009.84 1010.91 1012.03 1013.11 1014.09 1014.90 1015.52 1015.99 1016.35 1016.65 1016.96 1017.32 1017.75 1018.24 1018.76 1019.25 1019.68 1020.01 1020.22 1020.34 1020.39 1020.42 1020.46 1020.53 1020.65 1020.79 1020.93 1021.01 1021.01 1020.91 1020.71 1020.41 1020.07 1019.72 1019.39 1019.11 1018.89 1018.71
1007.14 1007.62 1008.16 1008.80 1009.59 1010.52 1011.55 1012.63 1013.67 1014.60 1015.37 1015.96 1016.40 1016.72 1016.99 1017.27 1017.60 1018.01 1018.48 1018.98 1019.46 1019.86 1020.17 1020.37 1020.47 1020.51 1020.53 1020.56 1020.64 1020.76 1020.92 1021.07 1021.17 1021.18 1021.09 1020.90 1020.61 1020.26 1019.89 1019.54 1019.23 1018.97 1018.75
1008.22 1008.72 1009.24 1009.83 1010.55 1011.38 1012.32 1013.29 1014.23 1015.07 1015.76 1016.28 1016.67 1016.95 1017.19 1017.44 1017.76 1018.15 1018.60 1019.08 1019.54 1019.94 1020.23 1020.42 1020.51 1020.54 1020.55 1020.57 1020.64 1020.75 1020.89 1021.03 1021.12 1021.13 1021.03 1020.83 1020.53 1020.17 1019.79 1019.42 1019.08 1018.79 1018.54
Thickness
5784 5785 5786 5787 5786 5784 5782 5781 5778 5776 5773 5771 5770 5768 5767 5765 5764 5763 5762 5761 5759 5758 5756 5755 5754 5753 5752 5751 5751 5750 5750 5750 5750 5750 5750 5749 5748 5748 5747 5747 5746 5745 5744
5789 5785 5784 5784 5783 5781 5779 5777 5775 5772 5770 5768 5766 5764 5763 5761 5760 5759 5758 5756 5755 5754 5752 5751 5750 5749 5748 5748 5747 5746 5746 5746 5746 5747 5747 5746 5745 5744 5744 5743 5742 5741 5739
5788 5784 5783 5782 5781 5778 5776 5774 5772 5770 5767 5765 5763 5761 5759 5758 5756 5755 5754 5752 5751 5750 5748 5747 5746 5745 5744 5744 5743 5742 5742 5742 5743 5743 5742 5741 5741 5740 5740 5739 5738 5736 5735
5787 5783 5782 5780 5779 5776 5774 5772 5770 5767 5765 5762 5760 5758 5756 5755 5753 5752 5750 5749 5747 5746 5744 5743 5742 5741 5740 5739 5739 5738 5738 5738 5739 5739 5738 5737 5737 5736 5736 5735 5734 5732 5730
5784 5782 5780 5779 5776 5774 5772 5770 5767 5765 5762 5760 5758 5756 5754 5752 5750 5749 5747 5746 5744 5743 5741 5739 5738 5737 5736 5735 5735 5733 5733 5734 5735 5735 5735 5734 5733 5732 5732 5731 5730 5728 5726
5782 5780 5778 5776 5774 5772 5769 5767 5764 5762 5759 5757 5755 5753 5751 5749 5748 5746 5745 5743 5741 5740 5738 5736 5735 5734 5733 5732 5731 5730 5729 5731 5732 5732 5732 5730 5729 5728 5728 5727 5726 5724 5722
5781 5779 5776 5774 5771 5768 5766 5764 5761 5759 5757 5754 5752 5750 5749 5747 5745 5744 5742 5741 5739 5737 5735 5734 5732 5731 5730 5729 5728 5725 5725 5728 5729 5729 5728 5727 5726 5725 5724 5724 5722 5721 5718
5781 5777 5774 5771 5768 5765 5763 5760 5758 5756 5754 5752 5750 5748 5746 5745 5743 5742 5740 5738 5736 5735 5733 5732 5730 5729 5728 5726 5724 5722 5721 5724 5725 5725 5724 5723 5722 5721 5721 5720 5718 5716 5714
5780 5775 5772 5769 5766 5763 5761 5758 5756 5753 5751 5750 5748 5746 5744 5742 5740 5739 5737 5735 5734 5732 5730 5729 5727 5726 5725 5723 5721 5719 5718 5720 5721 5721 5720 5719 5718 5717 5716 5715 5713 5712 5710
5777 5774 5771 5767 5765 5762 5759 5756 5754 5752 5749 5747 5745 5743 5741 5739 5737 5736 5734 5732 5730 5729 5727 5726 5724 5723 5721 5720 5718 5717 5716 5718 5718 5718 5716 5715 5714 5712 5711 5709 5708 5707 5705
5774 5772 5770 5767 5763 5761 5758 5755 5753 5750 5748 5745 5742 5740 5738 5736 5734 5732 5730 5728 5727 5725 5724 5722 5721 5719 5718 5718 5717 5715 5714 5715 5715 5715 5713 5711 5709 5707 5705 5704 5703 5702 5701
5773 5772 5771 5768 5764 5760 5757 5755 5752 5749 5746 5744 5741 5739 5736 5734 5732 5730 5728 5726 5724 5722 5721 5719 5717 5716 5715 5715 5715 5713 5712 5712 5712 5711 5709 5707 5705 5703 5701 5699 5698 5697 5696
5780 5776 5773 5769 5766 5762 5759 5755 5752 5749 5746 5744 5741 5739 5736 5733 5731 5729 5726 5724 5722 5720 5718 5717 5715 5713 5713 5712 5712 5710 5709 5709 5708 5706 5705 5702 5700 5698 5696 5694 5692 5691 5690
5784 5781 5777 5772 5767 5764 5760 5756 5753 5750 5747 5744 5742 5740 5736 5733 5731 5729 5726 5725 5722 5720 5717 5716 5714 5712 5710 5709 5707 5706 5704 5703 5702 5701 5699 5696 5694 5692 5690 5689 5687 5685 5684
5791 5787 5783 5777 5771 5767 5762 5757 5754 5751 5748 5746 5744 5741 5738 5735 5732 5730 5727 5725 5723 5720 5717 5714 5713 5710 5708 5706 5704 5702 5700 5697 5695 5693 5691 5689 5687 5686 5684 5683 5681 5679 5677
5795 5791 5786 5780 5775 5770 5764 5760 5757 5753 5749 5746 5744 5742 5739 5735 5732 5729 5725 5723 5721 5719 5716 5713 5710 5708 5705 5703 5700 5698 5695 5691 5688 5685 5683 5682 5680 5679 5678 5677 5675 5673 5670
5800 5795 5788 5782 5776 5771 5767 5762 5759 5755 5750 5747 5744 5741 5737 5734 5730 5725 5720 5717 5716 5714 5711 5708 5705 5702 5699 5696 5693 5691 5688 5685 5681 5677 5675 5673 5672 5671 5670 5669 5667 5664 5662
5798 5794 5790 5786 5776 5771 5768 5764 5760 5755 5750 5746 5741 5737 5733 5729 5724 5719 5713 5709 5707 5705 5702 5699 5696 5692 5688 5686 5683 5681 5679 5677 5674 5670 5667 5664 5663 5662 5660 5659 5657 5654 5651
5799 5794 5790 5787 5779 5773 5767 5763 5759 5753 5747 5742 5736 5731 5727 5723 5718 5713 5707 5702 5699 5695 5692 5690 5684 5681 5677 5675 5673 5672 5668 5665 5662 5659 5657 5654 5651 5650 5648 5647 5645 5642 5638
5798 5795 5792 5788 5780 5772 5764 5757 5751 5745 5740 5735 5729 5723 5719 5714 5709 5703 5697 5692 5688 5683 5679 5676 5671 5668 5665 5662 5662 5660 5657 5654 5650 5646 5643 5640 5637 5635 5633 5630 5628 5626 5623
5793 5790 5788 5783 5777 5769 5760 5752 5742 5733 5728 5723 5717 5712 5707 5703 5698 5692 5685 5680 5676 5671 5666 5664 5659 5655 5651 5650 5648 5645 5644 5641 5638 5633 5629 5625 5622 5618 5615 5613 5610 5607 5605
5790 5787 5782 5777 5771 5763 5755 5745 5734 5724 5715 5708 5703 5699 5694 5690 5686 5681 5675 5668 5664 5659 5654 5650 5647 5641 5637 5635 5632 5627 5623 5624 5622 5620 5614 5610 5606 5602 5598 5595 5591 5588 5586
5784 5780 5774 5766 5757 5750 5743 5733 5721 5711 5704 5696 5690 5683 5679 5675 5672 5668 5663 5657 5652 5647 5641 5636 5633 5629 5623 5619 5617 5613 5606 5603 5601 5603 5599 5594 5589 5585 5580 5577 5573 5570 5567
5778 5771 5764 5757 5747 5738 5729 5720 5708 5699 5691 5684 5679 5673 5668 5663 5658 5654 5650 5645 5640 5634 5629 5624 5619 5616 5612 5605 5601 5597 5593 5588 5583 5581 5580 5576 5572 5567 5563 5560 5556 5554 5551
5768 5760 5754 5747 5736 5727 5716 5706 5697 5688 5681 5675 5670 5665 5659 5653 5649 5644 5638 5633 5627 5621 5616 5611 5607 5603 5599 5593 5587 5582 5577 5572 5567 5561 5558 5557 5555 5552 5548 5544 5541 5538 5534
5756 5748 5740 5732 5723 5715 5706 5695 5688 5680 5674 5668 5663 5657 5651 5644 5638 5633 5627 5621 5615 5609 5604 5599 5595 5591 5586 5581 5575 5569 5563 5557 5551 5545 5541 5539 5537 5537 5534 5529 5525 5521 5517